[[{"header":{"parameterUnit":"m.s-1","parameterCategory":1,"la1":30.2991,"la2":30.254,"lo1":-89.0895,"lo2":-89.0444,"dy":0.0017,"dx":0.0017,"nx":28,"ny":28,"refTime":"2023-07-21T09:00:00:Z","depth":0,"parameterNumber":2,"parameterNumberName":"U-component_of_WINDS"},"data":[0,0,0,0,0,0,0,0,0,0,0,0,0,0,0,0,0,0,0,0,0,0,0,0,0,0,0,0,0,0,0,0,0,0,0,0,0,0,0,0,0,0,0,0,0,0,0,0,0,0,0,0,0,0,0,0,0,0,2.4216,2.4217,0,2.4277,2.4278,2.4279,2.4206,2.4203,2.4201,2.4198,2.4261,2.4265,2.4269,0,0,0,0,0,0,0,0,0,0,0,0,0,2.4035,2.4039,2.4216,2.4217,2.4218,2.4277,2.4278,2.4279,2.4206,2.4203,2.42,2.4197,2.4259,2.4264,2.4269,0,0,0,0,0,0,0,0,0,0,0,0,0,2.4107,2.404,2.4216,2.4189,2.4187,2.4277,2.4278,2.4279,2.4207,2.4203,2.4199,2.4195,2.4258,2.4264,2.427,2.439,0,0,2.4289,2.4292,0,0,0,0,0,0,0,0,2.4103,2.4113,2.4192,2.4191,2.4189,2.423,2.4237,2.4316,2.4208,2.42,2.4198,2.4193,2.4254,2.426,2.428,2.4393,2.4395,2.429,2.4293,2.4296,2.4298,0,0,0,0,0,0,0,2.4098,2.411,2.424,2.4193,2.4191,2.4173,2.4179,2.4252,2.4249,2.42,2.4195,2.4203,2.4252,2.4274,2.4281,2.4396,2.4289,2.4295,2.4299,2.4301,2.4607,2.4611,0,0,0,0,0,0,2.4096,2.4107,2.4238,2.4242,2.4135,2.4179,2.4186,2.4221,2.4248,2.4248,2.4206,2.4199,2.4266,2.4274,2.4283,2.4423,2.4296,2.4302,2.4305,2.4602,2.4608,2.4612,0,0,0,0,0,0,2.4093,2.4109,2.4236,2.4173,2.4188,2.4187,2.4227,2.4224,2.4246,2.4252,2.4251,2.423,2.4263,2.4274,2.4363,2.4424,2.4305,2.431,2.4597,2.4604,2.461,2.4705,0,0,0,0,0,0,2.4088,2.4108,2.4154,2.4175,2.4192,2.4316,2.4231,2.4228,2.4258,2.4249,2.4274,2.4275,2.4261,2.4354,2.4369,2.4431,2.4315,2.4592,2.46,2.4608,2.4696,2.4714,2.4729,0,0,0,0,0,2.4081,2.4179,2.4157,2.4173,2.4249,2.4319,2.4329,2.4311,2.4263,2.4308,2.4312,2.4274,2.4415,2.4364,2.438,2.4444,2.4588,2.4598,2.4607,2.4689,2.471,2.4729,0,0,0,0,0,0,2.4166,2.4181,2.4157,2.4264,2.4291,2.4307,2.4364,2.4334,2.4376,2.4366,2.4341,2.4348,2.4442,2.4452,2.4394,2.456,2.4494,2.4507,2.455,2.457,2.4586,2.4581,2.4321,0,0,0,0,0,2.4197,2.4253,2.4263,2.4356,2.4371,2.4366,2.4396,2.4379,2.4406,2.4417,2.4427,2.4454,2.4504,2.4538,2.4585,2.4698,2.4701,2.475,2.4766,2.478,2.4791,2.4849,2.487,2.4645,2.4644,2.4644,0,0,2.4261,2.4277,2.4314,2.4374,2.4393,2.445,2.4376,2.4441,2.4482,2.4427,2.451,2.4519,2.4548,2.4648,2.4693,2.466,2.4854,2.4792,2.4803,2.4807,2.4861,2.4882,2.4901,2.4651,2.465,2.4649,0,0,2.4408,2.4426,2.4505,2.4525,2.4554,2.455,2.4569,2.4589,2.4592,2.4676,2.4634,2.4684,2.4772,2.4793,2.4816,2.4969,2.4934,2.4985,2.5069,2.5126,2.5144,2.5159,2.5212,2.5231,2.4997,2.4997,2.4997,0,2.4484,2.457,2.4549,2.4616,2.4642,2.4594,2.4673,2.4693,2.4737,2.4756,2.4718,2.4826,2.4842,2.4945,2.4982,2.5003,2.5022,2.4981,2.5143,2.5158,2.5173,2.5222,2.5242,2.5003,2.5002,2.5001,2.5001,0,2.4661,2.4721,2.4781,2.4823,2.4857,2.4929,2.4918,2.4955,2.4935,2.4934,2.5019,2.5036,2.5084,2.5108,2.509,2.5209,2.5187,2.5147,2.5079,2.52,2.5246,2.5265,2.5011,2.5009,2.5007,2.5006,0,0,2.4863,2.4891,2.4913,2.4931,2.4959,2.5004,2.5074,2.5121,2.5152,2.5183,2.5239,2.5314,2.5276,2.5302,2.5286,2.5336,2.5453,2.5289,2.5289,2.5317,2.5582,2.561,2.5633,2.543,2.5434,2.5437,2.5578,0,2.5008,2.5128,2.511,2.5226,2.528,2.5234,2.5294,2.5318,2.5318,2.5363,2.5364,2.5416,2.5364,2.5378,2.5426,2.5428,2.5505,2.5418,2.5481,2.5484,2.5474,2.5657,2.5688,2.5821,2.5597,2.56,2.5602,0,2.5193,2.523,2.5351,2.5369,2.539,2.5445,2.5485,2.553,2.5554,2.5551,2.5579,2.5553,2.5621,2.5553,2.5646,2.5587,2.5612,2.5617,2.5621,2.5625,2.5549,2.5664,2.5863,2.5882,2.563,2.5628,2.5626,0,2.5325,2.5405,2.5487,2.5504,2.5527,2.5566,2.5578,2.5599,2.5627,2.5662,2.568,2.5724,2.5747,2.578,2.5766,2.5718,2.5861,2.5792,2.5859,2.5859,2.589,2.5888,2.6094,2.5909,2.5909,2.5908,2.5908,0,2.5488,2.5563,2.5546,2.5597,2.5679,2.5657,2.5739,2.5745,2.5764,2.5813,2.5777,2.5825,2.5804,2.585,2.584,2.5916,2.5928,2.5926,2.5922,2.5928,2.5928,2.5943,2.5933,2.5914,2.5913,2.5912,2.5911,0,2.5649,2.5641,2.5727,2.5741,2.5747,2.5806,2.5818,2.5865,2.5862,2.5926,2.5939,2.5935,2.5987,2.5976,2.6034,2.6027,2.6122,2.6108,2.6114,2.611,2.6176,2.6169,2.6397,2.6425,2.6225,2.6227,2.6228,0,2.5752,2.5809,2.5829,2.5859,2.5873,2.5924,2.5952,2.5933,2.5964,2.5995,2.6038,2.6086,2.6124,2.6208,2.621,2.6253,2.6238,2.6315,2.6244,2.6248,2.6237,2.6233,2.6237,2.6329,2.6331,2.6333,2.6334,0,2.5936,2.5929,2.5971,2.6013,2.6047,2.6079,2.6107,2.6134,2.6117,2.6153,2.6205,2.6235,2.6292,2.634,2.638,2.639,2.6359,2.6357,2.6374,2.638,2.638,2.6379,2.615,2.6351,2.635,2.6348,2.6347,2.6347,2.607,2.6117,2.6138,2.6186,2.6205,2.6231,2.6275,2.6277,2.632,2.6365,2.6352,2.641,2.6432,2.6482,2.6497,2.6542,2.6513,2.6539,2.6545,2.6551,2.6558,2.6375,2.655,2.6549,2.6549,2.6548,2.6548,0,2.6249,2.626,2.6305,2.6344,2.6382,2.635,2.6378,2.6412,2.6464,2.6487,2.6524,2.6583,2.6628,2.6634,2.6676,2.6711,2.6698,2.6723,2.6719,2.6722,2.6583,2.6563,2.6733,2.6733,2.6733,2.6733,2.6733,2.6733,2.6347,2.6424,2.642,2.6505,2.6515,2.6572,2.6591,2.6615,2.6633,2.67,2.6738,2.6741,2.6756,2.6799,2.6839,2.6839,2.6856,2.6886,2.6881,2.6751,2.6732,2.6714,2.6695,2.6891,2.6891,2.7016,2.7017,2.7018]},{"header":{"parameterUnit":"m.s-1","parameterCategory":1,"la1":30.2991,"la2":30.254,"lo1":-89.0895,"lo2":-89.0444,"dy":0.0017,"dx":0.0017,"nx":28,"ny":28,"refTime":"2023-07-21T09:00:00:Z","depth":0,"parameterNumber":3,"parameterNumberName":"V-component_of_WINDS"},"data":[0,0,0,0,0,0,0,0,0,0,0,0,0,0,0,0,0,0,0,0,0,0,0,0,0,0,0,0,0,0,0,0,0,0,0,0,0,0,0,0,0,0,0,0,0,0,0,0,0,0,0,0,0,0,0,0,0,0,3.3735,3.3736,0,3.3806,3.3807,3.3807,3.3756,3.3754,3.3751,3.3749,3.3817,3.3821,3.3824,0,0,0,0,0,0,0,0,0,0,0,0,0,3.3549,3.3552,3.3735,3.3736,3.3737,3.3806,3.3807,3.3808,3.3756,3.3754,3.3751,3.3748,3.3815,3.382,3.3825,0,0,0,0,0,0,0,0,0,0,0,0,0,3.3625,3.3554,3.3735,3.372,3.3719,3.3806,3.3807,3.3808,3.3757,3.3753,3.375,3.3747,3.3814,3.382,3.3825,3.3929,0,0,3.3843,3.3846,0,0,0,0,0,0,0,0,3.3621,3.3632,3.3721,3.3721,3.372,3.3769,3.3766,3.3848,3.3758,3.3742,3.3749,3.3745,3.3803,3.381,3.383,3.3933,3.3935,3.3844,3.3847,3.385,3.3852,0,0,0,0,0,0,0,3.3616,3.3629,3.3763,3.3722,3.3722,3.3707,3.3714,3.3781,3.3791,3.3743,3.374,3.3749,3.3802,3.3825,3.3831,3.3936,3.3844,3.3849,3.3852,3.3855,3.4125,3.4128,0,0,0,0,0,0,3.3613,3.3625,3.3761,3.3765,3.3661,3.3713,3.3721,3.3756,3.379,3.3792,3.3752,3.3747,3.3816,3.3825,3.3834,3.3956,3.385,3.3855,3.3859,3.4121,3.4126,3.413,0,0,0,0,0,0,3.3609,3.3625,3.3758,3.3694,3.371,3.372,3.376,3.376,3.3782,3.3796,3.3797,3.3774,3.3814,3.3825,3.3906,3.3958,3.3858,3.3863,3.4117,3.4123,3.4128,3.4202,0,0,0,0,0,0,3.3604,3.3624,3.3666,3.3695,3.3713,3.3831,3.3763,3.3763,3.3793,3.3786,3.3817,3.3819,3.3812,3.3897,3.3912,3.3964,3.3868,3.4112,3.4119,3.4126,3.4195,3.421,3.4222,0,0,0,0,0,3.3597,3.3683,3.3668,3.3685,3.3765,3.3834,3.3844,3.3836,3.3797,3.3838,3.3847,3.3818,3.395,3.3906,3.3922,3.3976,3.4109,3.4117,3.4125,3.4189,3.4207,3.4222,0,0,0,0,0,0,3.3658,3.3687,3.367,3.3769,3.38,3.3825,3.3876,3.3855,3.3897,3.3888,3.3875,3.3883,3.3967,3.398,3.393,3.4077,3.4023,3.4035,3.4066,3.4083,3.4096,3.4091,3.3873,0,0,0,0,0,3.3683,3.3738,3.376,3.3844,3.3861,3.3866,3.3895,3.3887,3.3917,3.3929,3.3944,3.3973,3.4021,3.4053,3.4098,3.4197,3.4202,3.4242,3.4256,3.4267,3.4277,3.4328,3.4345,3.4157,3.4157,3.4156,0,0,3.3734,3.3757,3.3793,3.3857,3.388,3.3935,3.3877,3.3938,3.3978,3.3938,3.4015,3.4027,3.4058,3.4148,3.4188,3.4161,3.433,3.4277,3.4286,3.429,3.4338,3.4356,3.4372,3.4162,3.4161,3.416,0,0,3.3857,3.3881,3.3953,3.3977,3.4012,3.4015,3.4032,3.4061,3.4068,3.4145,3.4116,3.4162,3.4246,3.4269,3.4291,3.4421,3.4395,3.4436,3.4505,3.4556,3.457,3.4583,3.4628,3.4644,3.4446,3.4446,3.4446,0,3.3916,3.4,3.3992,3.4055,3.4083,3.4051,3.4122,3.4146,3.4194,3.4213,3.4182,3.4285,3.4304,3.4398,3.4429,3.4449,3.4467,3.4432,3.4569,3.4582,3.4594,3.4636,3.4653,3.4451,3.445,3.445,3.4449,0,3.407,3.4128,3.4182,3.423,3.4264,3.4332,3.4332,3.4367,3.4355,3.436,3.4438,3.446,3.4507,3.4529,3.4518,3.4621,3.4603,3.4571,3.4516,3.4617,3.4656,3.4673,3.4457,3.4456,3.4454,3.4453,0,0,3.4232,3.4275,3.4294,3.4315,3.4352,3.4396,3.446,3.4508,3.4538,3.4572,3.4624,3.4695,3.4665,3.4691,3.4682,3.4726,3.4825,3.4688,3.4689,3.4712,3.4937,3.496,3.4979,3.4808,3.4812,3.4814,3.4934,0,3.4354,3.4469,3.4463,3.457,3.4622,3.4592,3.4647,3.4674,3.4681,3.4725,3.4731,3.478,3.4739,3.4754,3.4796,3.4804,3.487,3.4795,3.4855,3.4857,3.4847,3.5,3.5024,3.5137,3.495,3.4952,3.4954,0,3.4513,3.4554,3.4666,3.4693,3.4715,3.4765,3.4808,3.4851,3.488,3.4881,3.491,3.4893,3.4956,3.49,3.4985,3.4934,3.4958,3.4965,3.4969,3.4973,3.4911,3.5006,3.5173,3.5189,3.4979,3.4977,3.4975,0,3.4618,3.47,3.4777,3.4796,3.4831,3.4866,3.4882,3.4908,3.4937,3.4974,3.4992,3.5035,3.5058,3.5091,3.5086,3.5046,3.5171,3.5115,3.5172,3.5172,3.5199,3.5197,3.537,3.5217,3.5217,3.5217,3.5216,0,3.4755,3.4824,3.4825,3.4872,3.4948,3.494,3.5014,3.5025,3.5049,3.5096,3.5072,3.5116,3.5107,3.515,3.5146,3.5216,3.5227,3.5228,3.5226,3.523,3.5229,3.5244,3.5236,3.5221,3.522,3.5219,3.5218,0,3.4884,3.4888,3.497,3.4996,3.5004,3.5058,3.5079,3.5122,3.5127,3.5187,3.52,3.5206,3.5256,3.5254,3.5311,3.5307,3.5393,3.5382,3.5384,3.5381,3.5437,3.5431,3.5624,3.5648,3.5481,3.5483,3.5484,0,3.4971,3.5024,3.5055,3.5086,3.5104,3.5154,3.5183,3.5176,3.5208,3.5244,3.5283,3.5331,3.5369,3.545,3.5458,3.55,3.5489,3.5554,3.5495,3.5497,3.5488,3.5485,3.5489,3.5565,3.5567,3.5568,3.557,0,3.5123,3.5122,3.5167,3.5212,3.5248,3.5283,3.5314,3.534,3.5336,3.5372,3.5424,3.5454,3.5511,3.5558,3.5599,3.5612,3.559,3.5588,3.5603,3.5607,3.5605,3.5605,3.5413,3.5584,3.5582,3.5581,3.558,3.558,3.5233,3.5277,3.5307,3.5356,3.538,3.541,3.5452,3.5461,3.5505,3.5552,3.5545,3.5602,3.5628,3.568,3.5697,3.574,3.5717,3.5739,3.5745,3.575,3.5756,3.5599,3.5748,3.5747,3.5747,3.5747,3.5746,0,3.5382,3.54,3.5446,3.5491,3.553,3.5507,3.5541,3.5574,3.5625,3.5652,3.569,3.5748,3.5793,3.5805,3.5848,3.588,3.5871,3.5892,3.5888,3.5891,3.5775,3.5757,3.5898,3.5898,3.5898,3.5898,3.5898,3.5898,3.5465,3.5539,3.5541,3.5626,3.5641,3.5699,3.5719,3.5746,3.5767,3.5834,3.5872,3.588,3.59,3.5944,3.5984,3.5986,3.6002,3.6027,3.6025,3.5915,3.59,3.5885,3.5868,3.6031,3.6031,3.6137,3.6138,3.6139]}]]